Flag for United Arab Emirates Weather past 2 weeks in Al Ain, Abu Dhabi, United Arab Emirates

Now
86 °F

Clear.


Feels Like: 84 °F
Forecast: 77 / 106 °F
Wind: 3 mph from Southwest

Location: Al Ain International Airport

Current Time: May 26, 2015 at 4:36:46 AM

Latest Report: May 26, 2015 at 4:00 AM


Visibility: 10 mi

Pressure: 29.74 "Hg

Humidity: 29%

Dew point: 50 °F

Location of Al AinLocation

Historic Weather in Al Ain — Graph

°F

Al Ain temperature yesterday

Maximum temperature yesterday: 111 °F (at 4:00 PM)
Minimum temperature yesterday: 88 °F (at 5:00 AM)
Average temperature yesterday: 98 °F

Past Weeks' High & Low Weather Summary

 TemperatureHumidityPressure
High111 °F (May 13, 4:00 PM)74% (May 17, 7:00 AM)29.89 "Hg (May 17, 7:00 AM)
Low73 °F (May 19, 5:00 AM)5% (May 12, 2:00 PM)29.68 "Hg (May 16, 4:00 PM)
Average94 °F26%29.77 "Hg
* Reported May 11 3:00 AM — May 26 3:00 AM, Al Ain, Weather by CustomWeather, © 2015

Note: Actual official high and low records may vary slightly from our data, if they occured in-between our weather recording intervals... More about our weather records

Advertising

Al Ain weather history for previous 24 hours

 ConditionsComfort  
Time TempWeatherWind HumidityBarometerVisibility
3:00 AM
Tue, May 26
86 °FClear.2 mph29%29.74 "Hg10 mi
2:00 AM90 °FClear.7 mph26%29.74 "Hg10 mi
1:00 AM90 °FClear.6 mph27%29.74 "Hg10 mi
12:00 AM91 °FClear.3 mph24%29.77 "Hg10 mi
11:00 PM
Mon, May 25
93 °FClear.2 mph24%29.77 "Hg10 mi
10:00 PM95 °FClear.3 mph22%29.77 "Hg10 mi
9:00 PM97 °FClear.12 mph19%29.74 "Hg10 mi
8:00 PM100 °FClear.12 mph15%29.74 "Hg10 mi
7:00 PM104 °FClear.14 mph14%29.71 "Hg10 mi
6:00 PM106 °FClear.20 mph13%29.71 "Hg5 mi
5:00 PM109 °FPassing clouds.21 mph12%29.68 "Hg3 mi
4:00 PM111 °FPassing clouds.13 mph14%29.71 "HgN/A
3:00 PM109 °FPassing clouds.13 mph17%29.71 "HgN/A
2:00 PM109 °FPassing clouds.13 mph19%29.74 "HgN/A
1:00 PM108 °FPassing clouds.16 mph20%29.77 "HgN/A
12:00 PM106 °FClear.17 mph25%29.80 "Hg5 mi
11:00 AM102 °FClear.18 mph29%29.80 "Hg5 mi
10:00 AM99 °FClear.21 mph37%29.80 "Hg4 mi
9:00 AM97 °FDuststorm.20 mph42%29.80 "Hg3 mi
8:00 AM93 °FDuststorm.17 mph47%29.80 "Hg2 mi
7:00 AM90 °FClear.14 mph49%29.77 "Hg5 mi
6:00 AM88 °FSunny.10 mph25%29.77 "Hg10 mi
5:00 AM88 °FClear.8 mph24%29.74 "Hg10 mi
4:00 AM90 °FClear.7 mph24%29.74 "Hg10 mi
Weather by CustomWeather, © 2015

See weather overviewHow to use our weather pages